Wetterdaten: Woche 10.11.14 - 16.11.14 (KW46)
Datum Zeit Temperatur Luftfeuchte Luftdruck Niederschlag Windrichtung Sonnenschein Solar Wind
10.11.2014 00:00 5,8 C 99 % 1009,5 hPa 0,0 l/m NO 0,00 h 0 W/m 0,9 km/h (0 Bft)
10.11.2014 01:00 5,7 C 99 % 1009,9 hPa 0,0 l/m NO 0,00 h 0 W/m 3,5 km/h (1 Bft)
10.11.2014 02:00 5,5 C 99 % 1010,5 hPa 0,0 l/m NW 0,00 h 0 W/m 6,6 km/h (2 Bft)
10.11.2014 03:00 5,2 C 99 % 1011,1 hPa 0,0 l/m W-SW 0,00 h 0 W/m 7,4 km/h (2 Bft)
10.11.2014 04:00 5,3 C 99 % 1011,4 hPa 0,0 l/m W-SW 0,00 h 0 W/m 5,9 km/h (2 Bft)
10.11.2014 05:00 5,6 C 99 % 1011,7 hPa 0,0 l/m W-SW 0,00 h 0 W/m 5,2 km/h (1 Bft)
10.11.2014 06:00 5,6 C 99 % 1012,3 hPa 0,0 l/m W-SW 0,00 h 0 W/m 6,4 km/h (2 Bft)
10.11.2014 07:00 5,3 C 99 % 1012,9 hPa 0,0 l/m SW 0,00 h 8 W/m 8,7 km/h (2 Bft)
10.11.2014 08:00 5,1 C 99 % 1013,2 hPa 0,0 l/m SW 0,00 h 22 W/m 9,3 km/h (2 Bft)
10.11.2014 09:00 5,3 C 99 % 1013,4 hPa 0,0 l/m SW 0,00 h 49 W/m 6,2 km/h (2 Bft)
10.11.2014 10:00 5,9 C 99 % 1013,3 hPa 0,0 l/m S-SW 0,00 h 68 W/m 4,9 km/h (1 Bft)
10.11.2014 11:00 6,8 C 99 % 1013,1 hPa 0,0 l/m S-SW 0,00 h 80 W/m 5,3 km/h (1 Bft)
10.11.2014 12:00 7,4 C 99 % 1012,9 hPa 0,0 l/m S-SW 0,00 h 64 W/m 2,9 km/h (1 Bft)
10.11.2014 13:00 8,0 C 99 % 1012,6 hPa 0,0 l/m N 0,00 h 77 W/m 0,8 km/h (0 Bft)
10.11.2014 14:00 8,5 C 98 % 1012,4 hPa 0,0 l/m N 0,00 h 68 W/m 0,8 km/h (0 Bft)
10.11.2014 15:00 8,6 C 96 % 1012,4 hPa 0,0 l/m N 0,00 h 34 W/m 0,7 km/h (0 Bft)
10.11.2014 16:00 8,6 C 95 % 1012,3 hPa 0,0 l/m N 0,00 h 14 W/m 0,7 km/h (0 Bft)
10.11.2014 17:00 8,2 C 95 % 1012,0 hPa 0,0 l/m N 0,00 h 0 W/m 0,5 km/h (0 Bft)
10.11.2014 18:00 7,5 C 95 % 1011,8 hPa 0,0 l/m N 0,00 h 0 W/m 1,2 km/h (1 Bft)
10.11.2014 19:00 6,8 C 95 % 1011,7 hPa 0,0 l/m S-SW 0,00 h 0 W/m 4,1 km/h (1 Bft)
10.11.2014 20:00 6,5 C 96 % 1011,6 hPa 0,0 l/m SW 0,00 h 0 W/m 3,1 km/h (1 Bft)
10.11.2014 21:00 6,3 C 96 % 1011,5 hPa 0,0 l/m N 0,00 h 0 W/m 1,7 km/h (1 Bft)
10.11.2014 22:00 5,9 C 97 % 1011,3 hPa 0,0 l/m SW 0,00 h 0 W/m 4,5 km/h (1 Bft)
10.11.2014 23:00 5,6 C 97 % 1011,2 hPa 0,0 l/m SW 0,00 h 0 W/m 2,0 km/h (1 Bft)
11.11.2014 00:00 5,2 C 97 % 1010,9 hPa 0,0 l/m SW 0,00 h 0 W/m 2,4 km/h (1 Bft)
11.11.2014 01:00 4,9 C 97 % 1010,5 hPa 0,0 l/m SW 0,00 h 0 W/m 4,1 km/h (1 Bft)
11.11.2014 02:00 4,6 C 97 % 1010,5 hPa 0,0 l/m W 0,00 h 0 W/m 6,3 km/h (2 Bft)
11.11.2014 03:00 4,7 C 98 % 1010,3 hPa 0,0 l/m W-NW 0,00 h 0 W/m 6,7 km/h (2 Bft)
11.11.2014 04:00 5,1 C 98 % 1010,1 hPa 0,0 l/m N-NW 0,00 h 0 W/m 5,9 km/h (2 Bft)
11.11.2014 05:00 5,1 C 98 % 1009,6 hPa 0,0 l/m N-NO 0,00 h 0 W/m 6,9 km/h (2 Bft)
11.11.2014 06:00 5,1 C 99 % 1009,1 hPa 0,0 l/m N-NO 0,00 h 0 W/m 8,0 km/h (2 Bft)
11.11.2014 07:00 5,1 C 99 % 1008,5 hPa 0,0 l/m N-NO 0,00 h 5 W/m 8,6 km/h (2 Bft)
11.11.2014 08:00 5,1 C 99 % 1008,2 hPa 0,0 l/m O-NO 0,00 h 21 W/m 11,1 km/h (2 Bft)
11.11.2014 09:00 5,5 C 99 % 1008,0 hPa 0,0 l/m O-NO 0,00 h 34 W/m 8,9 km/h (2 Bft)
11.11.2014 10:00 5,9 C 99 % 1007,5 hPa 0,0 l/m O-NO 0,00 h 59 W/m 9,8 km/h (2 Bft)
11.11.2014 11:00 6,4 C 99 % 1006,7 hPa 0,0 l/m O-NO 0,00 h 82 W/m 12,5 km/h (3 Bft)
11.11.2014 12:00 6,7 C 99 % 1006,0 hPa 0,0 l/m O-NO 0,00 h 64 W/m 11,7 km/h (2 Bft)
11.11.2014 13:00 7,0 C 99 % 1005,4 hPa 0,0 l/m NO 0,00 h 75 W/m 11,0 km/h (2 Bft)
11.11.2014 14:00 7,4 C 98 % 1004,8 hPa 0,0 l/m NO 0,00 h 80 W/m 12,5 km/h (3 Bft)
11.11.2014 15:00 7,8 C 98 % 1004,3 hPa 0,0 l/m NO 0,25 h 90 W/m 8,8 km/h (2 Bft)
11.11.2014 16:00 7,6 C 97 % 1003,9 hPa 0,0 l/m NO 0,00 h 13 W/m 9,9 km/h (2 Bft)
11.11.2014 17:00 7,2 C 97 % 1003,8 hPa 0,0 l/m NO 0,00 h 0 W/m 9,4 km/h (2 Bft)
11.11.2014 18:00 7,2 C 97 % 1003,7 hPa 0,0 l/m NO 0,00 h 0 W/m 6,7 km/h (2 Bft)
11.11.2014 19:00 7,0 C 98 % 1003,3 hPa 0,0 l/m NO 0,00 h 0 W/m 5,1 km/h (1 Bft)
11.11.2014 20:00 6,8 C 98 % 1003,1 hPa 0,0 l/m NO 0,00 h 0 W/m 4,4 km/h (1 Bft)
11.11.2014 21:00 6,7 C 98 % 1002,9 hPa 0,0 l/m N 0,00 h 0 W/m 1,3 km/h (1 Bft)
11.11.2014 22:00 6,6 C 98 % 1002,3 hPa 0,0 l/m N 0,00 h 0 W/m 6,3 km/h (2 Bft)
11.11.2014 23:00 6,4 C 98 % 1002,3 hPa 0,0 l/m N 0,00 h 0 W/m 9,4 km/h (2 Bft)
12.11.2014 00:00 6,2 C 98 % 1002,3 hPa 0,0 l/m N 0,00 h 0 W/m 6,7 km/h (2 Bft)
12.11.2014 01:00 6,1 C 99 % 1002,0 hPa 0,0 l/m N 0,00 h 0 W/m 6,9 km/h (2 Bft)
12.11.2014 02:00 5,9 C 99 % 1001,8 hPa 0,0 l/m N 0,00 h 0 W/m 7,5 km/h (2 Bft)
12.11.2014 03:00 5,6 C 99 % 1001,4 hPa 0,0 l/m N 0,00 h 0 W/m 4,4 km/h (1 Bft)
12.11.2014 04:00 5,3 C 99 % 1001,3 hPa 0,0 l/m N 0,00 h 0 W/m 4,3 km/h (1 Bft)
12.11.2014 05:00 5,1 C 99 % 1001,4 hPa 0,0 l/m N 0,00 h 0 W/m 0,7 km/h (0 Bft)
12.11.2014 06:00 4,9 C 99 % 1001,7 hPa 0,0 l/m N 0,00 h 0 W/m 0,5 km/h (0 Bft)
12.11.2014 07:00 4,9 C 99 % 1002,3 hPa 0,0 l/m N 0,00 h 6 W/m 1,1 km/h (0 Bft)
12.11.2014 08:00 4,9 C 99 % 1002,9 hPa 0,0 l/m N 0,00 h 15 W/m 1,7 km/h (1 Bft)
12.11.2014 09:00 5,2 C 99 % 1003,2 hPa 0,0 l/m N-NW 0,00 h 30 W/m 2,1 km/h (1 Bft)
12.11.2014 10:00 5,9 C 100 % 1003,3 hPa 0,0 l/m W-SW 0,00 h 40 W/m 5,9 km/h (2 Bft)
12.11.2014 11:00 6,3 C 99 % 1003,4 hPa 0,0 l/m SW 0,00 h 45 W/m 6,0 km/h (2 Bft)
12.11.2014 12:00 6,7 C 99 % 1003,5 hPa 0,0 l/m SW 0,00 h 47 W/m 8,4 km/h (2 Bft)
12.11.2014 13:00 7,0 C 100 % 1003,7 hPa 0,0 l/m SW 0,00 h 56 W/m 8,2 km/h (2 Bft)
12.11.2014 14:00 7,2 C 99 % 1003,9 hPa 0,0 l/m S-SW 0,00 h 42 W/m 9,4 km/h (2 Bft)
12.11.2014 15:00 7,2 C 99 % 1004,4 hPa 0,0 l/m S-SW 0,00 h 34 W/m 11,7 km/h (2 Bft)
12.11.2014 16:00 7,1 C 99 % 1005,1 hPa 0,0 l/m S-SW 0,00 h 8 W/m 7,7 km/h (2 Bft)
12.11.2014 17:00 7,0 C 99 % 1005,5 hPa 0,0 l/m S-SW 0,00 h 0 W/m 4,7 km/h (1 Bft)
12.11.2014 18:00 6,9 C 99 % 1005,7 hPa 0,0 l/m S-SW 0,00 h 0 W/m 6,2 km/h (2 Bft)
12.11.2014 19:00 6,8 C 99 % 1006,2 hPa 0,0 l/m S-SW 0,00 h 0 W/m 4,7 km/h (1 Bft)
12.11.2014 20:00 6,7 C 99 % 1006,8 hPa 0,0 l/m S-SW 0,00 h 0 W/m 2,5 km/h (1 Bft)
12.11.2014 21:00 6,7 C 99 % 1007,3 hPa 0,0 l/m N 0,00 h 0 W/m 1,5 km/h (1 Bft)
12.11.2014 22:00 6,8 C 99 % 1007,9 hPa 0,0 l/m N 0,00 h 0 W/m 0,5 km/h (0 Bft)
12.11.2014 23:00 6,8 C 99 % 1008,2 hPa 0,0 l/m N 0,00 h 0 W/m 0,1 km/h (0 Bft)
13.11.2014 00:00 6,9 C 99 % 1008,8 hPa 0,0 l/m N 0,00 h 0 W/m 0,0 km/h (0 Bft)
13.11.2014 01:00 7,0 C 99 % 1009,2 hPa 0,2 l/m N 0,00 h 0 W/m 0,4 km/h (0 Bft)
13.11.2014 02:00 7,2 C 99 % 1009,7 hPa 0,8 l/m S-SW 0,00 h 0 W/m 1,3 km/h (1 Bft)
13.11.2014 03:00 7,2 C 99 % 1010,0 hPa 0,8 l/m N 0,00 h 0 W/m 1,2 km/h (1 Bft)
13.11.2014 04:00 7,2 C 99 % 1010,1 hPa 0,2 l/m N 0,00 h 0 W/m 0,8 km/h (0 Bft)
13.11.2014 05:00 7,3 C 99 % 1010,5 hPa 1,0 l/m N 0,00 h 0 W/m 0,0 km/h (0 Bft)
13.11.2014 06:00 7,4 C 99 % 1010,8 hPa 0,4 l/m N 0,00 h 0 W/m 0,0 km/h (0 Bft)
13.11.2014 07:00 7,6 C 100 % 1010,9 hPa 0,0 l/m N 0,00 h 0 W/m 0,8 km/h (0 Bft)
13.11.2014 08:00 7,7 C 100 % 1011,1 hPa 0,0 l/m N 0,00 h 13 W/m 0,4 km/h (0 Bft)
13.11.2014 09:00 7,8 C 100 % 1011,0 hPa 0,0 l/m N 0,00 h 25 W/m 0,0 km/h (0 Bft)
13.11.2014 10:00 8,2 C 100 % 1011,2 hPa 0,0 l/m N 0,00 h 32 W/m 0,1 km/h (0 Bft)
13.11.2014 11:00 8,5 C 100 % 1011,5 hPa 0,0 l/m N 0,00 h 29 W/m 0,0 km/h (0 Bft)
13.11.2014 12:00 8,8 C 100 % 1011,5 hPa 0,0 l/m N 0,00 h 30 W/m 1,2 km/h (1 Bft)
13.11.2014 13:00 8,9 C 100 % 1011,4 hPa 0,0 l/m S-SW 0,00 h 38 W/m 3,7 km/h (1 Bft)
13.11.2014 14:00 9,1 C 100 % 1011,0 hPa 0,0 l/m O-NO 0,00 h 74 W/m 7,8 km/h (2 Bft)
13.11.2014 15:00 9,2 C 100 % 1011,1 hPa 0,0 l/m O-NO 0,00 h 21 W/m 5,2 km/h (1 Bft)
13.11.2014 16:00 9,1 C 99 % 1011,1 hPa 0,2 l/m O-NO 0,08 h 10 W/m 4,0 km/h (1 Bft)
13.11.2014 17:00 8,7 C 99 % 1011,3 hPa 0,0 l/m N 0,00 h 0 W/m 2,7 km/h (1 Bft)
13.11.2014 18:00 8,4 C 99 % 1011,5 hPa 0,0 l/m O-NO 0,00 h 0 W/m 1,6 km/h (1 Bft)
13.11.2014 19:00 8,4 C 98 % 1011,7 hPa 0,0 l/m O-NO 0,00 h 0 W/m 2,4 km/h (1 Bft)
13.11.2014 20:00 8,3 C 98 % 1011,7 hPa 0,0 l/m O-NO 0,00 h 0 W/m 2,5 km/h (1 Bft)
13.11.2014 21:00 8,3 C 99 % 1011,8 hPa 0,0 l/m N 0,00 h 0 W/m 0,9 km/h (0 Bft)
13.11.2014 22:00 8,5 C 99 % 1011,6 hPa 0,0 l/m N 0,00 h 0 W/m 1,1 km/h (0 Bft)
13.11.2014 23:00 8,5 C 99 % 1011,2 hPa 0,0 l/m N 0,00 h 0 W/m 1,6 km/h (1 Bft)
14.11.2014 00:00 8,0 C 98 % 1010,8 hPa 0,0 l/m N 0,00 h 0 W/m 0,4 km/h (0 Bft)
14.11.2014 01:00 6,9 C 97 % 1010,8 hPa 0,0 l/m O-NO 0,00 h 0 W/m 0,9 km/h (0 Bft)
14.11.2014 02:00 7,1 C 98 % 1010,6 hPa 0,0 l/m O-NO 0,00 h 0 W/m 2,0 km/h (1 Bft)
14.11.2014 03:00 7,4 C 98 % 1010,3 hPa 0,0 l/m O-NO 0,00 h 0 W/m 2,7 km/h (1 Bft)
14.11.2014 04:00 7,4 C 98 % 1010,0 hPa 0,0 l/m O-NO 0,00 h 0 W/m 4,4 km/h (1 Bft)
14.11.2014 05:00 7,2 C 98 % 1009,8 hPa 0,0 l/m O-NO 0,00 h 0 W/m 5,5 km/h (1 Bft)
14.11.2014 06:00 7,1 C 98 % 1009,5 hPa 0,0 l/m O-NO 0,00 h 0 W/m 3,5 km/h (1 Bft)
14.11.2014 07:00 6,9 C 98 % 1009,3 hPa 0,0 l/m O-NO 0,00 h 6 W/m 5,3 km/h (1 Bft)
14.11.2014 08:00 6,9 C 98 % 1009,4 hPa 0,0 l/m O 0,00 h 19 W/m 5,9 km/h (2 Bft)
14.11.2014 09:00 7,0 C 98 % 1009,5 hPa 0,0 l/m O 0,00 h 45 W/m 6,9 km/h (2 Bft)
14.11.2014 10:00 7,2 C 98 % 1009,5 hPa 0,0 l/m O 0,00 h 69 W/m 9,1 km/h (2 Bft)
14.11.2014 11:00 7,3 C 98 % 1009,5 hPa 0,0 l/m O 0,00 h 76 W/m 4,1 km/h (1 Bft)
14.11.2014 12:00 7,4 C 97 % 1008,8 hPa 0,0 l/m O 0,00 h 81 W/m 4,4 km/h (1 Bft)
14.11.2014 13:00 7,8 C 97 % 1008,0 hPa 0,0 l/m O 0,00 h 113 W/m 6,5 km/h (2 Bft)
14.11.2014 14:00 8,2 C 95 % 1007,6 hPa 0,0 l/m O 0,00 h 76 W/m 6,8 km/h (2 Bft)
14.11.2014 15:00 8,2 C 96 % 1007,6 hPa 0,0 l/m NO 0,00 h 47 W/m 7,1 km/h (2 Bft)
14.11.2014 16:00 8,0 C 96 % 1007,6 hPa 0,0 l/m NO 0,00 h 12 W/m 6,4 km/h (2 Bft)
14.11.2014 17:00 7,5 C 96 % 1007,2 hPa 0,0 l/m NO 0,00 h 0 W/m 8,2 km/h (2 Bft)
14.11.2014 18:00 7,0 C 97 % 1006,9 hPa 0,0 l/m O-NO 0,00 h 0 W/m 6,5 km/h (2 Bft)
14.11.2014 19:00 6,6 C 97 % 1006,8 hPa 0,0 l/m NO 0,00 h 0 W/m 7,4 km/h (2 Bft)
14.11.2014 20:00 6,2 C 98 % 1006,8 hPa 0,0 l/m O-NO 0,00 h 0 W/m 7,0 km/h (2 Bft)
14.11.2014 21:00 5,9 C 98 % 1006,6 hPa 0,0 l/m O-NO 0,00 h 0 W/m 6,3 km/h (2 Bft)
14.11.2014 22:00 5,8 C 98 % 1006,1 hPa 0,0 l/m O-NO 0,00 h 0 W/m 8,2 km/h (2 Bft)
14.11.2014 23:00 5,7 C 99 % 1005,4 hPa 0,0 l/m NO 0,00 h 0 W/m 5,3 km/h (1 Bft)
15.11.2014 00:00 5,7 C 99 % 1004,7 hPa 0,0 l/m NO 0,00 h 0 W/m 6,6 km/h (2 Bft)
15.11.2014 01:00 5,8 C 99 % 1004,1 hPa 0,0 l/m NO 0,00 h 0 W/m 8,2 km/h (2 Bft)
15.11.2014 02:00 6,0 C 99 % 1003,4 hPa 0,0 l/m NO 0,00 h 0 W/m 6,8 km/h (2 Bft)
15.11.2014 03:00 5,9 C 99 % 1002,4 hPa 0,0 l/m O-NO 0,00 h 0 W/m 7,9 km/h (2 Bft)
15.11.2014 04:00 5,8 C 99 % 1002,2 hPa 0,0 l/m O-NO 0,00 h 0 W/m 8,0 km/h (2 Bft)
15.11.2014 05:00 5,5 C 99 % 1002,1 hPa 0,0 l/m O-NO 0,00 h 0 W/m 7,6 km/h (2 Bft)
15.11.2014 06:00 5,2 C 99 % 1002,4 hPa 0,0 l/m NO 0,00 h 0 W/m 6,4 km/h (2 Bft)
15.11.2014 07:00 5,2 C 99 % 1003,5 hPa 0,0 l/m NW 0,00 h 8 W/m 4,7 km/h (1 Bft)
15.11.2014 08:00 5,3 C 100 % 1004,5 hPa 0,0 l/m W-NW 0,00 h 14 W/m 6,3 km/h (2 Bft)
15.11.2014 09:00 5,9 C 100 % 1005,1 hPa 0,0 l/m W 0,00 h 46 W/m 6,5 km/h (2 Bft)
15.11.2014 10:00 6,7 C 100 % 1004,9 hPa 0,0 l/m W 0,00 h 50 W/m 8,0 km/h (2 Bft)
15.11.2014 11:00 7,5 C 100 % 1004,5 hPa 0,0 l/m SW 0,00 h 47 W/m 7,8 km/h (2 Bft)
15.11.2014 12:00 7,9 C 100 % 1003,7 hPa 0,0 l/m SW 0,00 h 62 W/m 5,4 km/h (1 Bft)
15.11.2014 13:00 8,6 C 99 % 1002,9 hPa 0,0 l/m S-SW 0,00 h 82 W/m 7,6 km/h (2 Bft)
15.11.2014 14:00 9,0 C 96 % 1002,4 hPa 0,0 l/m S-SW 0,00 h 43 W/m 1,9 km/h (1 Bft)
15.11.2014 15:00 9,2 C 95 % 1001,7 hPa 0,0 l/m SW 0,00 h 24 W/m 3,5 km/h (1 Bft)
15.11.2014 16:00 8,8 C 95 % 1001,2 hPa 0,0 l/m W 0,00 h 8 W/m 5,5 km/h (1 Bft)
15.11.2014 17:00 8,5 C 96 % 1001,0 hPa 0,0 l/m N-NW 0,00 h 0 W/m 8,2 km/h (2 Bft)
15.11.2014 18:00 8,1 C 96 % 1000,3 hPa 0,0 l/m N-NO 0,00 h 0 W/m 12,4 km/h (3 Bft)
15.11.2014 19:00 7,7 C 97 % 999,6 hPa 0,0 l/m N-NO 0,00 h 0 W/m 12,1 km/h (2 Bft)
15.11.2014 20:00 7,3 C 97 % 999,1 hPa 0,2 l/m NO 0,00 h 0 W/m 7,9 km/h (2 Bft)
15.11.2014 21:00 7,2 C 97 % 998,8 hPa 0,0 l/m N-NO 0,00 h 0 W/m 4,4 km/h (1 Bft)
15.11.2014 22:00 7,2 C 97 % 998,5 hPa 0,4 l/m N-NO 0,00 h 0 W/m 3,3 km/h (1 Bft)
15.11.2014 23:00 7,2 C 97 % 998,4 hPa 0,6 l/m N-NO 0,00 h 0 W/m 2,4 km/h (1 Bft)
16.11.2014 00:00 7,2 C 98 % 998,8 hPa 1,6 l/m W-NW 0,00 h 0 W/m 7,4 km/h (2 Bft)
16.11.2014 01:00 7,1 C 98 % 998,9 hPa 0,4 l/m W 0,00 h 0 W/m 18,6 km/h (3 Bft)
16.11.2014 02:00 6,5 C 97 % 1000,1 hPa 1,8 l/m W-SW 0,00 h 0 W/m 21,6 km/h (4 Bft)
16.11.2014 03:00 5,3 C 97 % 1000,6 hPa 1,8 l/m W-SW 0,00 h 0 W/m 19,8 km/h (4 Bft)
16.11.2014 04:00 4,9 C 97 % 1000,8 hPa 0,4 l/m SW 0,00 h 0 W/m 12,8 km/h (3 Bft)
16.11.2014 05:00 5,0 C 98 % 1001,3 hPa 0,2 l/m SW 0,00 h 0 W/m 6,7 km/h (2 Bft)
16.11.2014 06:00 5,3 C 98 % 1001,7 hPa 0,4 l/m SW 0,00 h 0 W/m 9,5 km/h (2 Bft)
16.11.2014 07:00 5,5 C 99 % 1002,1 hPa 0,8 l/m SW 0,00 h 7 W/m 19,4 km/h (3 Bft)
16.11.2014 08:00 5,7 C 98 % 1003,0 hPa 0,0 l/m W-SW 0,00 h 22 W/m 20,9 km/h (4 Bft)
16.11.2014 09:00 6,0 C 98 % 1003,4 hPa 0,0 l/m SW 0,00 h 66 W/m 15,6 km/h (3 Bft)
16.11.2014 10:00 7,0 C 97 % 1003,7 hPa 0,0 l/m SW 0,17 h 152 W/m 16,0 km/h (3 Bft)
16.11.2014 11:00 7,4 C 95 % 1003,5 hPa 0,0 l/m SW 0,42 h 207 W/m 14,9 km/h (3 Bft)
16.11.2014 12:00 8,5 C 92 % 1003,1 hPa 0,0 l/m SW 0,50 h 253 W/m 15,4 km/h (3 Bft)
16.11.2014 13:00 8,8 C 88 % 1002,7 hPa 0,0 l/m SW 0,50 h 255 W/m 11,5 km/h (2 Bft)
16.11.2014 14:00 9,5 C 84 % 1002,4 hPa 0,0 l/m SW 0,75 h 247 W/m 10,1 km/h (2 Bft)
16.11.2014 15:00 9,6 C 84 % 1002,4 hPa 0,0 l/m S-SW 0,92 h 118 W/m 6,3 km/h (2 Bft)
16.11.2014 16:00 9,0 C 84 % 1002,4 hPa 0,0 l/m N 0,08 h 11 W/m 0,1 km/h (0 Bft)
16.11.2014 17:00 7,0 C 86 % 1002,4 hPa 0,0 l/m N 0,00 h 0 W/m 0,3 km/h (0 Bft)
16.11.2014 18:00 5,3 C 89 % 1002,8 hPa 0,0 l/m S-SW 0,00 h 0 W/m 0,7 km/h (0 Bft)
16.11.2014 19:00 4,3 C 91 % 1003,3 hPa 0,0 l/m N 0,00 h 0 W/m 0,5 km/h (0 Bft)
16.11.2014 20:00 4,0 C 93 % 1003,6 hPa 0,0 l/m N 0,00 h 0 W/m 0,0 km/h (0 Bft)
16.11.2014 21:00 4,2 C 95 % 1003,7 hPa 0,0 l/m N 0,00 h 0 W/m 0,0 km/h (0 Bft)
16.11.2014 22:00 4,3 C 96 % 1003,7 hPa 0,0 l/m N 0,00 h 0 W/m 0,5 km/h (0 Bft)
16.11.2014 23:00 4,4 C 96 % 1003,7 hPa 0,0 l/m S-SW 0,00 h 0 W/m 1,3 km/h (1 Bft)
Min-Datum _ 16.11.14 16.11.14 15.11.14 - - - - 10.11.14
_ Min-Zeit 20:10 14:25 23:00 - - - - 00:05
Minimum _ 3,9 C 82 % 998,1 hPa - - - - 0,0 km/h (0 Bft)
Max-Datum _ 16.11.14 11.11.14 10.11.14 16.11.14 - 11.11.14 16.11.14 16.11.14
_ Max-Zeit 14:35 11:25 09:50 03:00 - 15:10 12:25 03:00
Maximum _ 9,9 C 100 % 1013,7 hPa 1,8 l/m - 0,08 h 480 W/m 35,4 km/h
SW (5 Bft)
Durchschnitt _ 6,8 C 98 % 1006,6 hPa #12,2 l/m SW #3:40 h 56 W/m 5,7 km/h (1 Bft)